Orbital Elements at Epoch 2459000.5 (2020-May-31.0) TDB
Reference: JPL 16 (heliocentric ecliptic J2000)
Element | Value | Uncertainty (1-sigma) | Units |
e | .0937186879787802 | 7.9924e-08 | |
a | 5.187308941735536 | 1.9889e-07 | au |
q | 4.701161153575487 | 5.3999e-07 | au |
i | 13.59741180371307 | 5.4202e-06 | deg |
node | 133.8396329512601 | 2.8689e-05 | deg |
peri | 269.5000713485804 | 4.446e-05 | deg |
M | 328.8836804243102 | 3.1253e-05 | deg |
tp | 2459373.490113488093 (2021-Jun-07.99011349) | 0.00036636 | TDB |
period | 4315.306009410554 11.81 | 0.00024818 6.795e-07 | d yr |
n | .08342397948486947 | 4.7979e-09 | deg/d |
Q | 5.673456729895586 | 2.1753e-07 | au |
|
| | Orbit Determination Parameters
Additional Information
|